Regional Weather Roundup
Issued by NWS Green Bay, WI

Home | Current Version | Previous Version | Graphics & Text | Print | Product List | Glossary Off
Versions: 1 2 3 4 5 6 7 8 9 10 11 12 13 14 15 16 17 18 19 20 21 22 23 24 25 26 27 28 29 30 31 32 33 34 35 36 37 38 39 40 41 42 43 44 45 46 47 48 49 50

000
ASUS43 KGRB 231410
RWRGRB

NORTH-CENTRAL AND NORTHEAST WISCONSIN REGIONAL WEATHER ROUNDUP
NATIONAL WEATHER SERVICE GREEN BAY WI
800 AM CST SUN NOV 23 2014

WIZ005-009-010>012-018-019-231500-
NORTH CENTRAL WISCONSIN

CITY           SKY/WX    TMP DP  RH WIND       PRES   REMARKS
IRONWOOD       CLOUDY    45  45 100 SW10G21   29.42S
MANITOWISH WTR FOG       41  41 100 S8        29.49S VSB<1/4
ARBOR VITAE    SNOW      43  42  96 S9        29.51S VSB<1/4
EAGLE RIVER    FOG       43  43 100 S7        29.52S VSB 1/4
LAND O LAKES   FOG       44  44 100 S8        29.52S VSB 1/4
RHINELANDER    FOG       43  43 100 S8        29.54S VSB 1
PHILLIPS       FOG       43  43 100 S8        29.49S VSB<1/4
ANTIGO         FOG       39  39 100 S9        29.57S VSB<1/4
TOMAHAWK       FOG       42  41  97 CALM      29.53S VSB<1/4
MERRILL        FOG       44  44 100 S6        29.55R VSB 3/4
$$

WIZ013-073-231500-
NORTHEAST WISCONSIN

CITY           SKY/WX    TMP DP  RH WIND       PRES   REMARKS
IRON MOUNTAIN  FOG       39  39 100 SE7       29.56F VSB<1/4
MARINETTE      CLOUDY    45  43  93 S12       29.62F VSB 1
OCONTO         CLOUDY    43  43 100 S7        29.62S
$$

WIZ017-030-035>037-045-231500-
CENTRAL WISCONSIN

CITY           SKY/WX    TMP DP  RH WIND       PRES   REMARKS
MEDFORD        FOG       40  40 100 S9        29.53S VSB<1/4
WAUSAU         FOG       44  44 100 S10       29.55S VSB 1/4
MOSINEE        FOG       43  43 100 S8        29.57S VSB 1/4
MARSHFIELD     LGT RAIN  46  44  93 S9        29.55S VSB 1/4
WISC RAPIDS    CLOUDY    48  46  93 S9        29.59R
STEVENS POINT  CLOUDY    45  45 100 S9        29.59R FOG
WAUPACA        CLOUDY    49  48  95 S9        29.60S FOG
SHAWANO        CLOUDY    48  47  95 S5        29.61S FOG
CLINTONVILLE   CLOUDY    45  45 100 S8        29.60S FOG
$$

WIZ038-039-048-051-231500-
FOX VALLEY

CITY           SKY/WX    TMP DP  RH WIND       PRES   REMARKS
NWS GREEN BAY  CLOUDY    47  45  93 S10       29.63S FOG
APPLETON       FOG       45  45 100 S10       29.63S VSB 1
OSHKOSH        CLOUDY    47  46  97 S13       29.64R FOG
FOND DU LAC    CLOUDY    49  46  90 S16       29.64S
$$

WIZ022-050-052-231500-
EAST CENTRAL WISCONSIN

CITY           SKY/WX    TMP DP  RH WIND       PRES   REMARKS
STURGEON BAY   CLOUDY    45  43  93 S13G18    29.66S VSB 1
MANITOWOC      FOG       45  45 100 S15       29.67S VSB 1/2
SHEBOYGAN      FOG       46  45  96 S8        29.68S VSB 3/4
$$

LMZ563-521-522-541>543-231500-
LAKESHORE

STATION/POSITION TIME  TEMP    WIND        PRES    VSBY  WAVE
                       AIR SEA DIR/SP/G                  HT/PER
                 (UTC) (F)     (DEG/KT/KT) (MB)    (MI)  (FT/S)
SHEBOYGAN LKSHOR 1400   44 39  180/ 14/ 15 1005.7R
KEWAUNEE LKSHORE 1400   40     170/ 10/ 13 1003.9S
NORTHPORT PIER   1400   44     170/  6/ 11 1004.4S
N MID LAKE BUOY  1400   44 42  200/ 21/ 25 1004.6F         5/ 6
SISTER BAY LKSHO 1300          190/ 14/ 17   N/A
STURGEON BAY CG  1300   41     180/  9     1005.6    3/8   1
CHAMBERS ISLAND  1400   46     140/  6/ 11 1004.1F
MENOMINEE LKSHOR 1400   43     160/ 12/ 16 1003.8F
$$



USA.gov is the U.S. government's official web portal to all federal, state and local government web resources and services.